DL1RF-13 Weather Reports


time (UTC)temp
C
wind
direction
speed
KPH
gust
KPH
rain 1hr
cm
rain 24hr
cm
rain mn
cm
humidity
%
barometer
mb
20190419065008 12 99 11.3 20.9 0.00 0.00 0.00 60 1027.7
20190419064005 12 96 9.7 16.1 0.00 0.00 0.00 64 1027.6
20190419063007 11 90 9.7 17.7 0.00 0.00 0.00 64 1027.6
20190419062008 11 83 8.0 16.1 0.00 0.00 0.00 66 1027.5
20190419061005 11 88 8.0 14.5 0.00 0.00 0.00 67 1027.5
20190419060007 10 86 8.0 14.5 0.00 0.00 0.00 68 1027.4
20190419055007 10 87 8.0 16.1 0.00 0.00 0.00 68 1027.3
20190419054005 10 85 8.0 12.9 0.00 0.00 0.00 69 1027.2
20190419053007 9 85 6.4 14.5 0.00 0.00 0.00 71 1027.2
20190419052005 9 84 6.4 14.5 0.00 0.00 0.00 70 1027.0
20190419051007 8 84 9.7 16.1 0.00 0.00 0.00 71 1026.9
20190419050008 8 82 8.0 17.7 0.00 0.00 0.00 72 1026.8
20190419045007 8 79 6.4 14.5 0.00 0.00 0.00 72 1026.7
20190419044008 8 80 6.4 14.5 0.00 0.00 0.00 73 1026.6
20190419043008 8 81 8.0 16.1 0.00 0.00 0.00 73 1026.5
20190419042005 8 81 6.4 16.1 0.00 0.00 0.00 73 1026.4
20190419041007 8 80 6.4 16.1 0.00 0.00 0.00 73 1026.3
20190419040007 8 81 6.4 14.5 0.00 0.00 0.00 73 1026.3
20190419035007 8 81 6.4 14.5 0.00 0.00 0.00 73 1026.2
20190419034005 8 84 8.0 16.1 0.00 0.00 0.00 73 1026.2
20190419033007 8 85 8.0 14.5 0.00 0.00 0.00 73 1026.1
20190419032005 8 82 6.4 12.9 0.00 0.00 0.00 73 1026.0
20190419031005 8 86 6.4 16.1 0.00 0.00 0.00 72 1026.1
20190419030007 8 87 8.0 12.9 0.00 0.00 0.00 72 1026.1
20190419025007 8 86 6.4 14.5 0.00 0.00 0.00 73 1026.0
20190419024008 8 86 6.4 14.5 0.00 0.00 0.00 73 1025.9
20190419023005 8 89 8.0 14.5 0.00 0.00 0.00 74 1026.0
20190419022006 8 83 4.8 12.9 0.00 0.00 0.00 74 1025.9
20190419021007 8 77 0.0 6.4 0.00 0.00 0.00 74 1025.9
20190419020005 8 82 4.8 14.5 0.00 0.00 0.00 73 1025.9
20190419015005 8 82 6.4 14.5 0.00 0.00 0.00 73 1025.7
20190419014005 8 83 4.8 12.9 0.00 0.00 0.00 73 1025.7
20190419013005 8 81 3.2 11.3 0.00 0.00 0.00 73 1025.7
20190419012010 8 83 3.2 11.3 0.00 0.00 0.00 73 1025.6
20190419011005 8 81 1.6 11.3 0.00 0.00 0.00 73 1025.7
20190419010007 8 85 0.0 6.4 0.00 0.00 0.00 74 1025.7
20190419005005 8 90 0.0 9.7 0.00 0.00 0.00 72 1025.7
20190419004007 9 77 3.2 9.7 0.00 0.00 0.00 71 1025.7
20190419003007 9 77 3.2 14.5 0.00 0.00 0.00 71 1025.7
20190419002007 9 79 3.2 12.9 0.00 0.00 0.00 70 1025.6
20190419001005 10 77 4.8 12.9 0.00 0.00 0.00 69 1025.6
20190419000007 10 82 6.4 14.5 0.00 0.00 0.00 69 1025.6
20190418235006 10 84 4.8 12.9 0.00 0.00 0.00 69 1025.7
20190418234008 10 84 3.2 11.3 0.00 0.00 0.00 68 1025.7
20190418233031 10 84 3.2 9.7 0.00 0.00 0.00 67 1025.7
20190418232008 10 80 1.6 9.7 0.00 0.00 0.00 66 1025.7
20190418231010 10 84 3.2 11.3 0.00 0.00 0.00 65 1025.6
20190418230006 11 81 1.6 9.7 0.00 0.00 0.00 65 1025.6
20190418225007 11 82 3.2 11.3 0.00 0.00 0.00 63 1025.6
20190418224007 11 80 4.8 14.5 0.00 0.00 0.00 62 1025.4
20190418223007 12 80 8.0 16.1 0.00 0.00 0.00 61 1025.3
20190418222009 12 89 9.7 22.5 0.00 0.00 0.00 60 1025.2
20190418221004 12 88 6.4 19.3 0.00 0.00 0.00 60 1025.2
20190418220018 12 87 8.0 16.1 0.00 0.00 0.00 60 1025.2
20190418215007 12 83 8.0 17.7 0.00 0.00 0.00 59 1025.2
20190418214007 12 82 8.0 20.9 0.00 0.00 0.00 59 1025.0
20190418213008 12 81 8.0 19.3 0.00 0.00 0.00 57 1024.9
20190418212007 13 87 9.7 25.7 0.00 0.00 0.00 56 1024.9
20190418211009 13 87 11.3 19.3 0.00 0.00 0.00 55 1024.8
20190418210009 13 87 9.7 24.1 0.00 0.00 0.00 55 1024.7
20190418205009 13 85 11.3 19.3 0.00 0.00 0.00 55 1024.7
20190418204010 13 91 12.9 25.7 0.00 0.00 0.00 53 1024.5
20190418203008 13 92 11.3 22.5 0.00 0.00 0.00 52 1024.5
20190418202006 14 91 12.9 22.5 0.00 0.00 0.00 52 1024.5
20190418201008 14 93 14.5 30.6 0.00 0.00 0.00 52 1024.4
20190418200006 14 92 12.9 24.1 0.00 0.00 0.00 52 1024.3
20190418195006 14 89 11.3 24.1 0.00 0.00 0.00 53 1024.3
20190418194010 14 90 11.3 19.3 0.00 0.00 0.00 52 1024.3
20190418193007 14 85 11.3 19.3 0.00 0.00 0.00 52 1024.3
20190418192006 15 88 9.7 19.3 0.00 0.00 0.00 52 1024.3
20190418191008 15 92 12.9 22.5 0.00 0.00 0.00 51 1024.3
20190418190006 15 91 12.9 24.1 0.00 0.00 0.00 52 1024.2
20190418185007 15 89 9.7 20.9 0.00 0.00 0.00 54 1024.1
20190418184008 15 86 6.4 16.1 0.00 0.00 0.00 54 1024.1
20190418183009 15 86 6.4 14.5 0.00 0.00 0.00 55 1024.0
20190418182008 15 85 8.0 14.5 0.00 0.00 0.00 55 1023.9
20190418181006 15 81 4.8 14.5 0.00 0.00 0.00 55 1023.8
20190418180007 16 83 6.4 16.1 0.00 0.00 0.00 52 1023.7
20190418175006 16 82 6.4 17.7 0.00 0.00 0.00 51 1023.6
20190418174006 16 85 9.7 19.3 0.00 0.00 0.00 49 1023.5
20190418173008 17 85 9.7 20.9 0.00 0.00 0.00 50 1023.5
20190418172013 17 85 11.3 20.9 0.00 0.00 0.00 49 1023.4
20190418171009 17 84 12.9 32.2 0.00 0.00 0.00 48 1023.2
20190418170006 17 87 14.5 30.6 0.00 0.00 0.00 46 1023.2
20190418165006 18 86 12.9 20.9 0.00 0.00 0.00 47 1023.2
20190418164008 18 88 12.9 24.1 0.00 0.00 0.00 48 1023.1
20190418163006 18 95 11.3 22.5 0.00 0.00 0.00 46 1023.1
20190418162008 18 91 11.3 24.1 0.00 0.00 0.00 46 1023.1
20190418161006 18 83 12.9 22.5 0.00 0.00 0.00 45 1023.1
20190418160007 18 86 12.9 22.5 0.00 0.00 0.00 45 1023.1
20190418155008 19 89 11.3 19.3 0.00 0.00 0.00 44 1023.0
20190418154008 19 86 11.3 24.1 0.00 0.00 0.00 46 1023.0
20190418153006 19 80 11.3 25.7 0.00 0.00 0.00 43 1023.0
20190418152008 19 87 12.9 24.1 0.00 0.00 0.00 44 1023.0
20190418151009 19 89 11.3 24.1 0.00 0.00 0.00 45 1023.1
20190418150008 19 87 12.9 24.1 0.00 0.00 0.00 44 1023.0
20190418145009 19 92 14.5 29.0 0.00 0.00 0.00 42 1023.1
20190418144009 20 91 14.5 25.7 0.00 0.00 0.00 42 1023.2
20190418143007 19 89 14.5 30.6 0.00 0.00 0.00 39 1023.2
20190418142008 20 86 16.1 29.0 0.00 0.00 0.00 41 1023.2
20190418141006 20 88 16.1 27.4 0.00 0.00 0.00 41 1023.2
20190418140006 19 87 14.5 29.0 0.00 0.00 0.00 40 1023.3
20190418135008 19 92 16.1 29.0 0.00 0.00 0.00 39 1023.2
20190418134009 19 92 17.7 33.8 0.00 0.00 0.00 41 1023.2
20190418133008 19 93 17.7 38.6 0.00 0.00 0.00 43 1023.3
20190418132009 19 94 17.7 37.0 0.00 0.00 0.00 43 1023.4
20190418131006 19 92 19.3 37.0 0.00 0.00 0.00 40 1023.4
20190418130008 19 85 14.5 29.0 0.00 0.00 0.00 42 1023.4
20190418125006 19 82 16.1 29.0 0.00 0.00 0.00 42 1023.5
20190418124006 19 87 14.5 29.0 0.00 0.00 0.00 43 1023.5
20190418123006 19 87 16.1 32.2 0.00 0.00 0.00 43 1023.5
20190418122007 18 97 16.1 29.0 0.00 0.00 0.00 46 1023.6
20190418121006 18 98 14.5 29.0 0.00 0.00 0.00 47 1023.6
20190418120008 18 87 14.5 33.8 0.00 0.00 0.00 47 1023.7
20190418115008 18 89 14.5 32.2 0.00 0.00 0.00 50 1023.7
20190418114008 18 81 14.5 29.0 0.00 0.00 0.00 49 1023.7
20190418113009 18 82 12.9 29.0 0.00 0.00 0.00 49 1023.7
20190418112008 18 94 16.1 32.2 0.00 0.00 0.00 48 1023.7
20190418111008 18 85 12.9 24.1 0.00 0.00 0.00 49 1023.7
20190418110006 17 100 16.1 30.6 0.00 0.00 0.00 49 1023.7
20190418105008 17 103 16.1 29.0 0.00 0.00 0.00 52 1023.8
20190418104008 17 89 16.1 29.0 0.00 0.00 0.00 52 1023.8
20190418103009 17 85 12.9 24.1 0.00 0.00 0.00 55 1023.8
20190418102004 17 84 14.5 27.4 0.00 0.00 0.00 53 1024.0
20190418101009 16 82 16.1 29.0 0.00 0.00 0.00 52 1023.9
20190418100007 16 83 16.1 29.0 0.00 0.00 0.00 56 1024.0
20190418095005 16 90 16.1 27.4 0.00 0.00 0.00 58 1024.0
20190418094006 16 89 14.5 27.4 0.00 0.00 0.00 59 1023.9
20190418093003 15 81 12.9 27.4 0.00 0.00 0.00 56 1024.0
20190418092010 15 84 11.3 25.7 0.00 0.00 0.00 59 1024.1
20190418091009 15 83 14.5 27.4 0.00 0.00 0.00 60 1024.2
20190418090008 15 89 12.9 25.7 0.00 0.00 0.00 64 1024.1
20190418085005 15 83 11.3 25.7 0.00 0.00 0.00 62 1024.2
20190418084007 14 85 11.3 27.4 0.00 0.00 0.00 64 1024.3
20190418083006 14 83 12.9 22.5 0.00 0.00 0.00 63 1024.2
20190418082008 13 87 12.9 30.6 0.00 0.00 0.00 66 1024.1
20190418081009 13 86 12.9 29.0 0.00 0.00 0.00 66 1024.1
20190418080005 13 90 12.9 27.4 0.00 0.00 0.00 66 1024.1
20190418075007 12 94 11.3 20.9 0.00 0.00 0.00 69 1024.0
20190418074009 12 90 11.3 30.6 0.00 0.00 0.00 69 1024.0
20190418073007 12 83 11.3 22.5 0.00 0.00 0.00 71 1023.9
20190418072005 12 79 12.9 27.4 0.00 0.00 0.00 70 1023.9
20190418071005 11 87 11.3 24.1 0.00 0.00 0.00 70 1023.8
20190418070007 11 85 12.9 27.4 0.00 0.00 0.00 71 1023.8